{"data":{"norad_id":47229,"intl_designator":"2020-091C","name":"GONETS-M 22","alt_names":[],"object_type":"PAYLOAD","status":"ACTIVE","operator":null,"country":"CIS","launch_date":"2020-12-03","launch_site_code":"PLMSC","launch_vehicle":null,"mission":null,"orbit_class":"UNKNOWN","rcs_meters":null,"size_class":null,"mass_kg":null,"dimensions":null,"purposes":[],"wikipedia_slug":null,"has_3d_model":false,"image_url":null,"decayed_at":null,"tle_current":{"epoch":"2026-05-25T04:08:14.057088Z","epoch_age_seconds":60061,"freshness":"FRESH","line1":"1 47229U 20091C   26145.17238492  .00000061  00000+0  36905-3 0  9992","line2":"2 47229  82.5018 316.3553 0021113 224.1675 135.7719 12.42891561248164","mean_motion":12.42891561,"eccentricity":0.0021113,"inclination_deg":82.5018,"raan_deg":316.3553,"arg_perigee_deg":224.1675,"mean_anomaly_deg":135.7719,"bstar":0.00036905,"rev_number":24816,"period_min":115.85886051406,"perigee_km":1477.748046731,"apogee_km":1510.9904917034,"semimajor_km":7872.5062692172,"source":"CELESTRAK","updated_at":"2026-05-25T13:37:56.399129Z"}}}